Wind_Speed
13 14 18 21 20 18 17 19 19 15 10 9 10 9 10 14 14 13 14 14 18 21 22 21 20 22 22 20 21 22 22 24 22 21 22 22 21 20 20 20 19 19 18 17 17 17 15 15 15 14 13 12 10 9 8 8 8 7 7 7 9 10 10 11 11 11 12 12 13 13 13 12 12 12 11 11 10 9 9 9 10 11 11 12 11 11
15 17 18 20 20 17 16 16 18 18 12 9 10 11 11 11 10 12 15 14 16 20 21 21 20 21 23 22 22 21 21 25 25 22 22 22 21 21 20 19 20 19 18 17 18 18 16 16 15 14 13 12 10 9 8 8 8 8 8 8 8 10 10 10 10 11 12 13 13 13 13 13 13 12 11 11 10 9 9 9 9 10 11 12 11 11
17 19 18 17 18 18 16 15 18 20 15 11 12 11 8 7 7 10 13 13 16 18 18 22 22 21 22 23 25 23 22 25 27 25 25 23 22 21 21 21 21 21 19 19 19 18 17 17 16 15 14 11 10 10 10 9 8 9 9 8 8 9 10 10 10 11 12 12 13 13 13 13 13 12 11 11 10 9 10 9 9 9 10 11 11 11
17 18 18 17 16 18 17 15 19 19 15 14 14 9 6 9 8 8 11 12 15 17 16 21 23 21 23 25 26 26 24 25 25 26 28 25 23 23 22 21 21 22 22 21 20 19 19 18 16 16 14 12 11 10 10 9 8 8 8 8 8 8 9 10 10 10 11 12 12 12 12 13 13 12 12 11 10 10 10 10 10 10 10 11 11 11
16 15 16 17 16 16 17 18 21 20 14 13 14 12 10 12 8 7 11 11 12 13 13 18 20 21 27 28 28 26 24 26 24 26 29 26 24 24 22 22 22 22 23 22 21 21 19 18 17 16 14 13 12 11 10 10 8 8 8 8 8 8 9 10 10 11 12 11 11 12 12 13 13 12 12 12 11 11 11 10 10 10 10 10 11 10
16 14 14 17 16 17 18 18 18 16 13 13 14 16 17 13 8 8 10 10 11 11 14 20 18 16 28 30 30 29 26 27 26 26 30 27 25 25 23 23 23 23 23 21 22 21 19 17 17 16 15 13 13 12 11 10 10 9 8 8 8 9 9 10 11 12 12 12 12 12 12 12 13 12 13 12 12 12 12 11 10 10 10 10 10 10
17 13 14 16 16 18 18 15 13 12 14 16 12 9 17 11 6 7 8 9 12 10 13 21 15 11 25 30 30 32 29 29 28 27 30 28 26 26 24 24 24 23 22 22 22 21 18 18 17 17 16 14 13 12 12 11 11 9 8 9 9 9 10 11 12 12 12 13 13 13 13 13 13 13 13 12 12 12 12 11 11 11 10 10 10 9
17 15 16 17 16 18 17 14 14 13 16 16 7 7 13 7 5 6 6 8 11 8 9 18 15 8 19 28 30 32 31 30 30 29 31 30 27 27 26 25 23 23 22 22 22 21 19 18 18 17 16 15 13 13 12 12 11 10 8 9 9 10 10 11 12 12 12 13 13 13 13 13 13 13 13 12 12 12 11 11 11 11 11 10 10 9
15 17 17 16 16 17 16 14 14 15 17 14 6 4 5 4 8 11 8 6 9 9 7 14 16 7 10 22 27 29 32 32 32 32 32 31 28 26 27 25 23 23 22 22 22 21 19 18 17 17 17 16 15 13 13 12 11 11 9 9 10 11 11 11 12 12 12 12 13 13 13 13 13 13 13 12 12 12 11 11 11 11 11 11 10 9
13 15 14 15 16 15 15 14 13 15 16 12 6 5 6 5 8 10 10 7 9 11 10 13 19 11 5 17 28 30 33 36 36 33 32 32 30 26 26 26 24 24 23 23 23 21 19 18 17 18 17 16 15 14 14 12 12 12 11 11 11 11 11 11 11 11 11 11 12 12 12 13 13 12 13 12 12 12 11 11 10 10 10 10 10 10
13 11 13 15 15 15 15 15 14 15 15 12 7 6 8 9 9 9 9 9 8 9 12 13 21 16 6 13 28 32 35 39 39 36 33 32 31 28 27 26 25 25 24 24 23 21 20 19 17 17 17 17 16 16 15 13 13 12 11 12 12 12 11 11 11 11 11 11 11 11 12 12 12 12 12 12 12 11 11 11 10 10 10 9 9 10
14 12 14 14 13 14 16 17 15 15 15 13 8 6 9 10 11 10 10 9 7 8 11 12 16 15 9 10 20 28 33 37 38 39 36 34 33 31 28 26 26 26 25 24 23 22 22 20 19 18 19 18 17 16 16 14 13 12 12 13 12 12 12 11 11 12 12 12 11 10 11 11 11 12 12 12 11 11 11 11 10 10 9 9 9 9
15 15 16 14 13 15 16 15 16 18 18 14 9 9 10 7 7 8 8 8 9 4 1 7 11 9 7 6 11 20 27 34 37 37 37 36 34 32 29 27 26 26 26 25 24 24 23 21 20 20 20 20 18 17 16 15 13 13 13 13 13 13 13 12 11 12 12 12 11 11 11 11 11 11 11 11 11 11 11 10 10 9 9 9 9 8
16 16 16 13 14 17 17 16 17 19 20 17 13 12 10 6 5 6 6 7 7 2 6 5 8 5 4 5 8 12 18 30 36 33 35 35 31 29 28 28 27 27 27 26 25 25 24 23 22 21 21 21 19 18 17 16 15 14 14 14 14 14 14 13 12 13 13 13 12 12 11 11 11 11 11 12 12 11 11 10 10 9 9 9 9 8
17 14 16 14 13 17 19 19 17 14 16 18 17 15 11 9 7 4 4 4 2 2 3 1 4 4 5 5 8 9 11 24 34 31 30 30 29 28 27 27 27 26 27 26 26 25 24 24 23 22 22 21 19 18 17 17 16 15 15 15 15 15 14 14 13 13 13 13 13 13 12 12 11 11 11 11 11 11 11 10 10 9 9 9 9 8
17 14 17 17 14 16 20 21 17 14 15 17 17 18 15 12 10 7 5 4 2 2 2 3 4 5 6 5 7 9 10 21 32 31 28 26 29 31 30 29 27 25 26 26 27 27 25 23 23 24 23 21 20 19 18 18 17 16 15 15 15 15 15 14 14 13 13 13 13 13 13 12 12 11 11 10 10 10 11 10 10 10 9 8 8 8
15 14 17 19 16 16 20 21 17 13 12 10 16 21 17 10 10 10 7 7 7 5 2 4 5 5 5 5 7 9 11 21 30 31 27 23 26 32 33 32 29 27 27 26 28 29 26 24 24 25 24 22 21 20 19 18 17 16 15 15 16 15 15 15 14 13 13 13 13 13 13 12 12 11 11 11 11 11 10 10 9 10 9 8 8 8
12 13 14 21 17 15 17 18 18 17 13 8 9 14 15 11 10 9 5 5 7 3 1 5 7 7 5 3 8 11 14 20 27 29 28 25 26 30 34 34 31 28 26 25 26 28 27 25 25 25 24 22 21 21 20 19 17 17 17 16 16 16 15 15 14 14 14 14 13 13 13 12 12 12 12 11 11 11 10 9 9 9 9 9 8 8
10 13 12 20 16 12 14 14 18 21 20 16 9 7 10 13 12 11 6 3 4 2 1 5 5 6 4 3 8 13 14 17 23 26 28 28 29 31 34 36 34 30 27 25 25 26 26 25 25 25 23 22 22 22 21 19 18 18 18 17 17 16 16 15 15 15 15 14 14 13 13 13 13 13 12 11 11 11 10 10 9 9 8 8 8 8
8 12 11 14 14 11 15 16 18 20 21 20 15 11 12 12 9 10 9 6 4 2 2 3 2 3 5 6 8 12 14 15 19 23 26 27 29 32 36 38 37 34 29 27 26 27 27 25 25 25 22 22 23 22 21 20 19 19 18 17 17 17 17 16 15 15 15 15 15 14 14 13 13 13 12 12 11 11 11 10 10 10 9 9 8 8
8 11 10 9 12 14 16 18 18 18 19 20 17 14 12 11 10 9 9 10 7 4 3 3 2 2 7 8 9 12 14 15 16 20 24 26 28 32 37 38 37 35 32 29 26 26 26 26 26 25 23 23 23 21 21 21 19 19 18 18 18 17 17 16 15 15 15 16 16 15 14 14 14 13 12 12 11 11 10 10 10 10 9 8 8 8
11 11 10 10 13 15 16 17 17 16 17 19 19 16 12 11 11 9 9 10 10 9 6 2 3 4 7 9 10 12 12 13 15 16 18 21 24 30 36 37 37 38 36 32 27 25 26 28 28 26 25 25 24 23 23 22 20 19 19 18 18 18 18 17 16 15 15 16 16 16 15 14 14 14 13 13 12 12 11 10 10 10 9 9 8 8
13 10 11 12 12 11 11 15 18 18 18 18 19 19 16 13 13 10 8 8 10 10 5 3 4 2 4 6 9 13 13 13 15 15 14 16 20 26 32 35 38 40 38 34 29 26 25 27 29 27 26 26 25 24 24 23 22 22 20 19 18 18 18 17 17 16 15 16 16 17 17 16 15 14 14 14 13 12 12 12 11 10 10 9 8 8
13 11 12 13 13 15 12 14 16 16 18 19 18 19 18 17 15 12 10 9 9 8 3 4 2 1 2 4 7 13 16 14 13 12 13 16 17 21 27 33 37 38 35 34 33 30 28 27 27 26 28 29 27 26 27 26 24 23 22 21 19 18 18 17 17 17 16 16 16 17 17 16 15 14 14 13 12 13 13 13 12 11 11 10 9 9
10 13 13 10 9 14 12 13 15 15 18 19 17 17 18 18 16 13 12 11 10 10 6 2 3 2 4 6 6 10 12 10 8 8 12 16 18 20 25 30 36 36 34 35 35 33 31 30 28 27 28 29 27 27 29 27 25 25 25 23 20 19 19 18 18 17 17 16 16 16 17 17 17 15 14 14 13 13 13 13 13 12 12 11 10 10
8 9 12 12 9 7 4 4 7 12 17 18 18 17 16 16 17 16 14 12 11 10 7 1 8 8 6 6 7 8 8 7 8 10 12 15 17 19 23 27 32 35 36 36 35 34 32 31 30 28 27 27 26 27 27 26 24 26 27 24 21 20 19 19 19 18 17 17 17 17 17 17 17 16 16 15 15 14 13 13 14 13 13 13 12 11
9 10 9 14 14 10 7 9 7 8 13 16 16 15 14 13 16 17 16 14 12 8 1 4 9 13 10 6 5 4 6 8 10 13 14 15 16 17 19 22 28 33 37 37 36 36 36 34 32 30 28 27 25 24 26 25 23 26 30 26 21 20 20 20 20 18 18 18 18 18 17 17 17 17 17 16 16 16 15 15 14 13 13 13 13 12
9 11 10 12 17 17 16 14 11 9 10 12 13 15 16 16 14 16 18 16 12 8 6 10 9 12 11 6 3 3 5 8 10 13 13 14 15 15 15 17 21 27 32 35 37 38 38 36 33 31 30 29 26 24 26 26 26 29 30 25 23 23 24 23 21 20 19 19 19 19 18 18 17 17 17 17 17 17 16 15 15 14 13 13 14 14
7 11 11 13 17 17 16 17 14 11 12 13 15 16 19 17 13 15 19 16 13 10 11 13 9 8 8 6 5 5 5 6 9 10 11 13 13 13 12 12 15 20 24 29 34 38 38 36 34 33 32 31 30 29 29 27 27 29 26 21 22 24 23 22 22 22 21 21 20 19 19 19 19 19 19 18 18 17 17 16 16 15 15 15 15 14
6 9 10 12 16 16 16 17 16 14 14 15 17 15 17 19 19 17 16 15 14 10 13 14 9 9 8 7 8 7 5 8 10 9 10 12 11 9 9 8 10 13 17 22 28 35 37 36 35 35 34 33 33 33 30 25 23 24 23 22 24 24 22 22 23 23 22 21 20 19 20 21 21 21 20 20 20 19 18 18 17 16 16 16 15 14
7 9 9 11 14 15 14 16 17 17 16 16 18 15 10 14 18 16 12 11 13 8 15 15 11 11 9 8 8 6 6 9 11 10 10 11 10 8 7 7 7 8 12 16 21 28 35 39 38 36 35 34 32 32 30 25 23 24 24 25 27 26 24 24 25 24 23 23 22 21 22 22 23 24 25 25 23 21 19 19 18 18 18 17 16 16
6 8 7 9 13 13 12 13 17 18 18 18 17 11 8 4 5 6 4 3 8 0 16 17 12 12 11 9 9 7 7 9 11 10 12 13 12 10 10 10 10 10 11 14 17 23 31 38 40 38 37 35 32 30 30 29 29 29 28 29 30 28 26 27 27 26 25 23 22 22 23 22 24 25 26 26 24 22 21 21 20 21 21 19 18 18
7 8 8 8 11 12 11 11 13 15 16 14 7 9 12 8 8 10 5 3 12 11 11 15 13 12 11 9 8 8 8 9 11 11 12 13 15 15 14 13 11 10 10 12 15 20 27 34 39 39 37 34 32 31 31 31 31 32 31 31 31 30 30 31 30 28 27 25 23 22 23 22 21 21 23 23 22 21 22 23 23 23 22 20 19 18
8 10 10 8 8 9 9 9 10 11 9 4 3 7 7 6 6 8 6 3 5 11 8 9 13 11 9 8 8 8 9 10 12 13 12 12 14 15 14 13 10 9 11 14 17 20 25 30 36 38 36 33 31 30 31 31 32 33 34 34 34 34 35 35 33 31 30 29 26 24 25 24 21 19 22 24 23 22 24 25 25 25 24 23 21 20
9 9 10 8 9 9 8 8 8 6 1 4 5 5 4 5 7 5 6 8 7 3 5 6 10 9 8 8 9 10 11 12 13 14 13 12 13 13 12 12 13 13 14 15 18 23 26 30 33 35 35 33 32 32 33 33 34 34 35 35 35 36 36 36 35 34 33 32 30 28 27 26 23 20 22 26 25 24 24 24 24 25 25 24 24 23
8 9 10 9 10 10 8 7 6 1 4 4 6 7 6 6 6 3 2 6 6 2 6 7 7 7 9 11 11 12 13 14 14 14 14 12 12 14 14 14 14 15 15 16 18 22 25 29 33 35 36 36 35 35 35 35 35 36 36 36 36 37 37 37 36 35 34 33 31 30 30 29 27 24 24 26 28 27 25 23 23 23 24 24 25 25
8 9 10 10 10 10 8 5 2 2 3 2 5 10 10 7 6 3 2 1 1 4 8 8 8 11 14 14 14 16 18 17 14 13 13 12 13 15 15 15 15 15 15 16 17 18 21 25 28 31 34 35 36 36 36 37 37 36 35 35 34 33 33 35 37 37 35 33 32 32 31 29 29 27 26 27 29 29 27 24 24 24 24 24 24 25
10 9 9 9 9 9 9 7 3 0 1 1 3 8 10 8 6 6 5 2 1 3 7 10 12 14 15 15 17 19 18 15 13 13 12 11 13 15 15 14 14 13 13 14 15 17 19 21 24 26 28 30 31 32 32 32 32 31 31 29 27 24 24 27 31 33 35 36 32 27 23 23 24 24 24 26 29 28 26 24 24 26 26 26 26 27
11 10 8 9 11 10 10 9 5 2 2 2 2 3 5 8 8 7 4 4 4 5 9 14 14 13 14 16 17 15 11 9 11 12 12 10 11 12 12 11 11 11 12 13 14 15 17 18 20 22 24 25 25 25 25 25 25 25 25 23 21 19 19 21 23 24 28 31 29 23 20 22 25 23 22 22 23 22 20 19 20 22 25 27 29 28
12 11 9 10 13 11 9 8 2 4 3 0 4 6 2 5 7 5 3 4 5 6 11 16 16 15 16 15 12 9 8 8 9 9 11 11 12 12 11 10 10 10 11 12 12 13 14 15 17 19 20 21 21 21 21 20 20 20 18 16 15 16 16 15 15 17 19 22 22 20 19 23 27 28 27 26 23 20 19 18 16 16 18 21 25 24
9 9 10 11 11 10 11 9 2 6 4 4 5 7 3 2 1 4 4 5 5 6 11 16 16 17 19 17 12 11 12 11 9 9 12 15 15 13 12 10 10 10 10 10 10 11 11 12 14 15 16 17 18 18 17 16 16 15 13 11 12 14 14 14 14 15 17 18 19 20 21 24 27 28 27 27 25 23 21 17 14 13 14 16 20 21
5 6 6 7 8 8 7 5 3 6 2 6 4 6 3 1 2 5 5 6 7 7 13 19 18 17 18 16 14 14 14 11 8 11 16 16 13 12 11 9 8 8 9 9 10 10 9 9 11 12 13 14 15 15 15 14 14 13 11 10 11 12 11 11 12 13 14 15 16 18 19 20 21 20 20 20 20 19 17 15 15 17 18 17 16 16
3 3 4 4 3 2 0 1 3 4 1 5 2 3 4 2 6 7 6 6 7 7 12 17 20 19 16 15 15 14 12 10 11 15 17 16 13 12 10 8 7 7 8 10 11 11 11 10 11 11 11 11 12 13 13 13 12 12 12 11 11 11 11 10 11 11 11 11 10 10 10 9 9 9 9 11 11 11 10 9 10 14 15 11 9 9
3 2 2 3 2 2 3 2 3 3 2 2 2 4 2 6 10 8 6 5 4 4 7 11 15 17 17 16 15 13 12 12 13 13 13 14 13 10 7 7 8 9 11 12 11 12 12 10 10 11 10 9 9 10 11 12 13 13 11 10 11 13 14 12 12 12 12 11 10 9 8 8 8 7 5 6 7 7 6 4 2 3 5 5 5 5
4 2 0 1 1 1 4 7 7 6 3 2 5 6 6 9 9 7 5 5 5 3 3 5 9 13 14 14 13 11 11 12 12 12 13 14 12 8 7 9 10 10 11 12 11 11 11 10 9 9 9 9 10 10 10 10 10 11 10 10 11 14 15 14 13 13 13 13 14 14 13 12 12 11 9 8 8 9 8 6 4 3 3 4 5 5
2 1 3 3 2 3 8 11 9 7 4 3 4 5 6 6 4 3 4 4 5 5 5 4 5 7 8 8 8 9 10 11 12 14 16 14 10 9 12 13 12 12 12 12 11 11 10 9 9 8 8 9 9 9 8 7 7 7 8 9 10 12 12 12 11 11 12 13 13 13 14 15 15 16 15 14 13 12 11 11 10 9 7 7 7 8
2 2 4 5 4 4 7 9 8 7 5 3 2 3 5 4 1 1 1 2 3 4 5 7 7 5 5 6 8 9 11 13 13 12 11 10 8 10 14 14 13 13 13 12 11 10 9 9 9 8 8 7 7 8 8 7 7 7 7 8 8 9 10 10 10 10 9 9 8 8 8 9 11 14 15 15 15 14 12 12 12 12 12 11 11 12
6 5 5 5 4 3 5 7 8 7 4 1 2 1 3 5 2 0 0 0 2 3 5 8 9 7 6 7 8 9 11 13 13 12 10 8 7 8 12 13 14 14 13 11 11 10 9 9 9 8 8 7 7 7 7 6 7 7 7 7 8 8 9 9 10 10 9 9 9 9 8 8 9 10 12 12 12 11 10 10 11 11 12 13 14 15
6 6 6 6 5 4 5 6 5 3 1 2 1 1 1 1 1 1 1 2 2 0 4 8 9 9 8 7 6 5 6 7 8 8 7 6 6 6 6 8 11 12 12 12 11 11 10 10 9 8 7 6 5 5 5 5 5 5 5 6 7 7 8 9 9 9 10 10 11 11 11 11 11 12 13 13 12 13 13 13 13 14 15 15 16 16
5 6 7 6 7 9 8 7 8 6 4 4 3 2 2 2 2 1 2 2 3 3 0 4 6 6 6 6 5 5 4 3 4 4 5 6 7 7 5 5 8 10 10 11 11 10 10 10 8 6 5 5 5 5 5 5 5 5 5 5 6 6 7 8 9 9 10 11 11 12 12 13 13 13 14 14 14 14 15 15 15 16 17 17 18 18
6 8 7 6 9 12 11 10 11 10 7 5 3 4 3 3 5 4 3 2 2 3 3 4 5 3 3 5 6 7 6 6 6 7 8 10 11 11 10 11 11 10 10 11 12 12 12 11 9 9 8 7 7 7 7 7 7 7 7 7 7 8 8 8 9 9 9 10 10 11 12 12 13 14 14 14 14 15 16 16 16 16 17 17 18 18
Wind_Direction
201 211 214 217 219 221 224 225 230 234 234 238 227 235 238 208 198 202 198 200 200 194 196 194 192 188 179 176 175 176 180 175 178 184 179 178 179 176 175 181 179 172 181 184 171 173 184 191 194 196 196 192 180 173 173 166 156 150 147 148 145 143 144 145 142 139 135 129 126 126 125 125 129 132 132 131 130 126 128 134 136 138 139 137 133 126
207 218 218 219 221 224 231 230 232 234 236 240 235 240 239 214 193 197 197 195 199 199 198 197 196 195 187 180 179 186 189 178 175 184 184 182 180 176 179 182 176 173 181 181 174 175 184 192 195 197 200 197 184 176 180 174 165 156 152 156 148 142 142 143 145 144 141 134 131 130 129 130 132 134 135 135 133 129 132 135 138 142 143 140 137 133
211 222 221 222 223 227 234 232 231 233 232 235 244 244 234 219 197 190 188 185 195 200 198 195 191 191 192 189 187 192 196 183 178 183 185 184 182 178 181 183 177 176 179 181 178 176 184 193 195 198 199 197 193 186 182 180 175 163 157 159 152 145 144 144 148 150 148 142 138 137 136 136 136 138 137 136 135 134 136 136 138 143 143 141 140 138
212 223 223 222 223 228 233 230 229 231 231 234 245 247 192 182 189 184 184 185 193 197 196 194 191 194 196 195 194 193 193 190 187 187 184 182 184 181 181 185 180 178 182 182 179 178 188 196 195 198 198 191 194 195 185 185 185 174 165 162 157 150 146 146 149 154 156 149 143 141 141 141 140 140 138 137 139 139 138 136 139 142 141 140 138 139
218 224 222 222 223 226 227 228 226 226 234 240 244 241 199 183 192 176 171 173 184 201 209 190 185 196 197 194 196 192 191 194 194 191 186 181 185 184 182 187 182 183 189 183 179 186 192 196 193 195 199 191 193 201 192 190 193 186 176 169 164 154 149 150 149 155 159 154 148 146 147 146 144 143 140 139 142 144 140 137 141 141 139 139 137 139
224 224 220 220 220 220 224 230 226 220 231 250 252 231 203 193 198 172 166 169 179 207 215 184 171 190 197 196 197 194 192 195 193 193 190 184 186 186 183 186 185 187 192 183 182 191 191 190 191 191 196 194 194 199 196 196 199 196 187 178 170 156 153 154 151 154 159 158 156 155 154 152 148 148 145 143 144 145 143 141 144 145 142 142 140 143
227 222 218 217 215 218 224 229 225 219 224 248 264 194 166 173 192 187 190 183 181 203 210 193 182 183 193 198 199 196 195 194 193 195 194 189 188 188 185 185 187 189 190 185 186 194 192 189 191 190 193 196 196 197 199 200 199 201 198 187 175 161 159 158 154 155 159 161 162 162 159 156 154 154 152 150 148 146 145 145 148 151 150 148 148 151
225 221 218 211 209 215 220 221 222 222 223 236 256 140 140 152 172 185 206 189 186 207 214 205 204 184 190 199 199 198 198 195 194 196 197 195 189 188 188 185 188 189 187 188 190 193 195 192 189 188 191 196 198 198 203 203 199 204 205 193 179 170 169 164 159 161 162 162 164 164 163 160 159 160 158 157 154 151 151 150 152 154 155 155 155 158
218 226 223 205 205 215 216 220 220 220 223 223 219 177 167 168 165 168 179 185 188 198 209 206 204 198 198 202 198 198 202 199 198 198 197 197 192 188 190 185 187 191 185 189 194 193 197 194 188 188 190 195 198 199 203 203 201 206 207 199 187 179 177 172 169 167 163 163 165 165 166 164 164 164 163 163 161 160 159 157 157 156 157 159 159 162
212 225 222 202 207 217 216 223 222 218 221 214 211 235 227 203 190 179 177 189 190 201 228 208 195 197 192 197 196 197 203 204 202 200 196 198 197 191 190 186 187 192 186 190 194 192 198 197 190 190 191 194 198 200 205 202 202 208 208 202 193 185 184 182 180 174 166 165 168 170 169 168 171 170 168 169 168 167 165 164 164 160 162 164 163 165
219 211 205 205 215 219 219 228 228 224 227 218 214 248 246 231 232 225 210 212 206 220 241 211 194 201 193 196 202 203 206 205 202 201 196 198 200 193 189 187 189 191 189 194 193 190 197 199 193 193 192 194 197 199 204 203 201 206 206 200 194 190 190 188 186 179 171 169 169 171 171 172 178 176 173 175 174 173 171 169 169 167 169 171 169 169
226 203 197 210 219 219 226 232 229 226 228 224 222 248 255 236 231 238 228 222 231 247 247 214 194 204 208 208 213 213 212 206 202 201 197 197 198 193 187 187 191 191 189 194 193 189 197 197 192 194 193 195 198 198 201 203 200 204 206 201 195 195 195 192 189 182 177 175 172 173 174 175 179 180 180 181 179 179 176 173 173 172 175 175 174 175
221 213 205 215 225 224 228 225 224 226 218 214 222 240 249 235 215 230 225 220 230 252 274 180 177 199 227 230 221 222 219 210 203 201 200 200 198 194 188 184 191 194 191 193 192 190 195 195 192 194 195 198 200 198 199 201 202 203 206 204 199 199 201 196 192 187 181 176 175 178 179 178 179 181 183 184 182 184 180 178 178 176 178 178 178 183
210 213 205 212 225 226 225 216 218 224 210 204 220 233 238 233 219 228 227 230 239 305 37 118 160 189 240 225 211 225 228 214 205 201 202 204 201 198 192 185 189 195 194 194 194 193 194 195 195 196 199 201 200 198 198 200 204 205 205 206 202 202 204 201 195 191 186 179 178 182 182 180 181 181 184 185 185 185 183 181 183 182 184 185 186 190
208 206 204 214 222 219 222 219 219 229 215 208 222 233 233 230 238 248 231 226 232 316 355 163 182 212 224 202 191 208 222 209 201 196 195 200 202 200 197 190 187 194 198 196 194 195 196 197 197 199 203 203 200 200 200 202 206 207 205 205 205 205 207 206 200 194 189 183 182 184 184 184 183 181 184 186 185 185 184 184 188 190 190 191 192 193
218 215 213 217 218 212 217 221 228 250 241 214 213 228 233 225 227 245 267 269 224 198 231 216 204 209 215 203 187 192 196 194 194 192 188 191 197 199 199 196 189 191 201 200 194 193 195 198 198 201 205 204 201 202 204 205 205 206 207 207 207 207 209 209 204 199 193 189 188 185 186 187 185 183 184 184 184 185 186 186 191 194 192 195 198 197
226 229 214 200 201 207 212 221 227 241 243 207 199 217 227 226 223 234 270 284 249 218 209 225 202 175 184 188 183 185 182 184 188 190 191 191 195 197 200 202 197 193 198 201 198 195 197 198 198 203 207 203 201 202 205 207 205 206 209 211 211 208 210 211 207 203 198 196 195 189 187 188 185 185 184 183 183 186 187 186 192 197 193 195 202 202
251 261 215 182 188 201 204 220 226 226 238 235 208 214 219 223 230 235 260 287 259 243 332 257 218 168 160 179 188 184 178 183 188 191 195 199 200 199 201 207 206 199 197 201 202 201 203 201 199 204 208 205 204 204 206 207 207 210 211 213 216 213 211 211 209 207 203 200 201 196 192 190 188 189 188 187 186 186 186 183 190 200 196 199 207 208
268 278 224 177 178 191 193 213 224 224 236 246 254 254 232 226 223 218 222 255 256 221 176 245 219 172 181 208 201 198 189 190 195 197 201 204 206 202 200 204 206 199 196 199 202 204 206 203 200 203 207 207 204 204 206 208 210 213 212 213 216 214 213 212 210 210 206 202 203 202 198 195 194 194 191 192 192 189 187 184 190 199 199 205 215 214
265 279 251 187 183 198 195 205 219 221 227 237 251 266 254 245 231 215 226 250 255 230 166 183 157 175 223 229 209 205 204 205 205 205 205 205 206 202 199 201 202 198 197 198 201 206 205 202 203 203 202 206 206 204 205 208 210 211 211 213 215 213 212 212 211 211 209 206 205 204 203 201 201 199 195 195 196 195 191 187 191 197 199 207 213 213
253 262 257 199 197 224 216 207 214 216 216 220 229 240 238 233 225 217 237 253 249 258 244 170 133 204 223 220 207 201 205 214 217 212 207 204 202 200 199 200 200 198 198 201 205 208 203 200 205 204 200 204 207 205 206 207 208 211 213 214 214 213 213 212 211 211 211 210 208 207 206 204 205 205 201 198 199 201 199 194 197 198 200 211 214 213
242 241 234 201 197 224 226 212 215 217 214 215 218 228 232 224 220 218 233 246 244 258 273 126 132 216 220 213 204 199 203 212 218 219 210 203 201 201 200 201 200 198 201 205 209 210 203 202 207 205 200 204 206 204 208 209 205 208 214 216 215 213 214 214 213 212 212 212 211 211 212 210 209 209 209 206 204 205 206 206 206 203 202 211 216 216
249 253 247 244 235 245 233 209 214 218 218 222 220 224 231 229 231 231 231 243 249 259 276 107 127 202 207 206 205 201 207 214 216 219 215 206 205 205 205 205 205 204 205 207 208 208 204 205 210 207 201 204 205 202 209 212 207 205 208 212 216 214 213 216 216 214 213 213 212 214 215 216 214 214 215 213 210 209 211 212 212 209 207 209 215 219
246 249 257 273 276 280 259 205 206 216 221 230 227 223 228 230 232 236 235 249 265 270 267 119 122 288 190 198 211 202 205 215 219 220 222 219 214 212 212 211 210 211 210 206 204 203 201 203 207 206 202 203 204 204 211 216 215 213 207 205 212 216 215 217 218 217 214 213 213 214 216 218 218 218 219 218 216 216 215 215 214 214 215 213 217 223
236 231 238 262 277 274 252 198 193 206 216 231 233 222 226 230 233 236 229 230 253 271 279 117 131 206 197 186 197 204 204 205 206 208 213 218 218 216 216 214 213 214 211 205 203 202 202 203 203 204 205 206 206 208 213 216 219 221 214 203 205 213 215 217 220 219 217 215 214 215 216 217 218 220 221 220 220 220 220 221 218 216 217 217 219 224
266 253 223 227 245 254 247 201 208 210 208 221 235 232 226 224 229 237 233 218 217 242 271 123 136 145 160 170 176 201 212 195 191 200 203 211 217 216 214 215 216 215 210 207 206 205 205 208 207 206 208 211 212 212 215 216 217 221 217 206 204 210 214 218 221 220 220 218 216 217 217 217 218 220 221 221 221 220 222 226 225 220 218 219 222 225
280 290 237 229 248 258 299 328 308 245 209 208 227 238 236 230 226 231 241 236 221 220 292 76 134 137 135 154 160 178 194 174 183 204 208 211 216 215 214 216 217 215 213 212 211 208 209 211 210 207 209 216 217 215 216 216 212 215 212 202 202 211 214 218 221 221 223 223 221 219 218 218 219 219 221 222 222 222 221 222 226 226 223 223 225 229
256 275 261 252 260 266 285 297 286 264 237 221 228 233 238 248 237 226 237 243 237 219 138 115 139 145 140 150 144 124 141 153 177 199 203 209 217 216 214 214 214 214 215 217 215 212 210 209 210 211 214 218 220 220 223 220 213 213 210 197 198 210 213 216 219 219 222 226 226 225 223 220 220 221 222 223 224 224 223 222 225 228 228 228 229 231
251 267 264 262 265 265 269 267 262 264 257 253 254 233 227 245 246 232 237 242 247 234 171 143 144 147 148 163 162 145 148 174 194 195 191 202 215 214 206 206 212 214 216 219 219 217 213 208 209 214 218 221 224 227 230 224 215 216 215 206 211 217 215 216 220 220 220 222 224 225 226 225 223 222 222 224 225 225 224 224 225 226 229 230 230 230
244 274 272 273 274 269 259 249 247 250 248 257 267 245 221 230 238 238 241 240 245 224 160 148 147 142 151 177 172 165 178 194 204 204 197 201 208 209 201 197 207 211 213 216 217 218 217 212 209 213 219 224 227 230 232 225 220 225 226 224 228 231 226 227 231 229 224 223 223 221 222 224 226 227 225 224 224 223 222 224 225 227 231 230 230 232
242 273 278 279 276 271 262 246 236 240 244 254 267 264 242 228 229 237 245 250 259 221 155 153 166 160 164 189 192 192 194 194 203 206 196 190 191 198 196 189 197 202 205 209 209 213 216 214 210 212 217 222 226 231 236 235 233 234 233 232 236 239 237 237 239 236 231 231 231 226 221 219 220 224 225 225 224 221 219 221 223 225 227 226 225 226
277 276 271 272 268 266 266 253 240 239 240 243 257 292 335 308 259 284 294 338 342 166 155 155 162 168 176 193 204 206 198 205 216 204 185 178 180 186 185 185 193 192 192 199 200 205 211 212 212 213 216 220 224 228 232 233 232 233 234 236 239 241 243 244 245 245 245 245 243 240 237 230 222 222 225 226 227 226 225 225 226 229 230 230 230 229
287 271 268 276 273 265 266 267 261 251 241 238 264 1 10 357 350 349 338 26 31 50 131 151 152 166 183 189 194 194 188 201 208 196 189 185 183 188 192 193 194 192 196 203 202 202 206 209 212 214 217 222 228 230 230 231 231 233 235 238 240 241 244 246 247 249 252 253 252 251 253 250 243 238 235 233 231 230 231 232 232 234 236 237 239 241
269 267 266 269 272 269 271 277 271 256 246 253 1 11 2 341 338 345 327 291 18 41 68 131 143 154 176 179 177 182 183 187 187 187 196 198 193 199 203 198 193 192 199 208 209 208 207 207 210 214 219 226 233 234 233 233 234 235 237 240 241 241 242 244 246 248 251 254 254 252 255 258 256 248 244 245 243 238 238 239 238 239 239 239 241 245
263 268 263 258 262 268 273 269 253 241 279 17 9 357 333 295 280 295 326 310 298 12 66 123 144 153 173 176 175 186 194 200 196 193 199 200 197 204 205 196 192 193 196 201 207 210 211 210 212 216 222 229 234 235 234 235 237 239 240 243 246 246 246 246 245 246 249 253 254 254 257 258 254 247 248 253 252 247 245 246 246 245 245 244 244 244
268 269 265 254 253 257 262 265 255 264 42 25 16 13 346 302 289 280 317 317 298 196 151 157 168 187 198 190 183 190 204 215 211 202 204 206 202 201 202 199 196 195 197 198 202 208 212 215 218 221 226 230 233 234 234 235 239 242 245 249 253 253 251 249 246 245 247 250 250 252 255 254 250 252 256 255 251 248 247 248 249 251 251 250 250 249
261 266 263 251 249 253 253 258 272 12 18 26 38 21 1 335 324 304 233 240 32 171 177 171 175 195 203 197 191 199 211 218 213 205 207 213 210 203 201 201 202 203 204 205 206 209 212 216 220 225 229 232 234 236 238 240 242 245 248 251 253 254 252 249 246 243 243 246 246 246 248 247 247 251 255 255 255 254 253 251 252 254 254 253 254 254
253 256 256 248 250 250 244 239 228 2 328 156 64 23 12 1 328 290 258 223 179 195 186 171 174 191 194 189 195 205 211 211 202 197 199 203 208 208 201 197 203 210 214 216 218 218 219 221 223 224 228 232 236 238 240 241 241 242 243 245 247 251 253 251 247 240 238 242 242 238 235 236 242 248 251 253 257 260 260 259 258 256 254 253 254 256
242 236 236 243 243 241 244 246 238 200 202 197 253 313 2 0 326 291 263 239 219 197 181 173 177 191 193 192 198 200 198 199 199 200 200 194 197 205 202 194 200 210 214 220 225 225 227 228 227 226 227 230 233 233 233 233 232 232 236 237 237 240 245 249 246 238 233 233 232 227 229 238 247 251 251 253 256 259 260 261 260 257 253 252 253 255
231 224 225 238 237 232 241 252 264 79 103 129 292 273 282 352 318 279 243 236 214 191 188 182 175 177 184 192 199 189 182 203 221 226 218 196 184 191 199 199 203 209 211 215 218 218 220 221 220 222 223 224 226 225 223 224 223 223 227 227 224 226 231 235 234 230 229 230 230 232 238 244 248 250 253 256 261 262 261 261 262 259 253 251 251 250
235 233 234 239 237 233 239 244 180 92 78 13 309 252 218 50 281 221 212 225 214 188 190 189 183 179 181 185 190 188 188 202 224 230 210 193 184 187 194 200 205 206 205 205 202 203 206 207 208 211 212 213 216 215 214 215 213 211 213 213 213 219 225 229 231 234 236 240 245 249 249 248 250 254 257 260 262 262 259 254 251 254 258 258 256 254
248 254 259 251 239 236 244 248 126 120 84 346 313 234 234 42 181 194 195 212 223 202 186 191 197 196 190 193 199 195 191 196 204 196 192 192 193 189 187 193 197 196 194 190 186 188 193 194 195 199 203 205 208 209 210 210 208 205 204 207 214 218 218 221 228 234 237 241 247 250 248 248 252 256 257 257 256 255 250 240 239 250 259 261 260 261
240 260 346 339 269 235 23 45 95 118 325 326 308 237 278 237 162 156 155 179 211 211 190 194 203 202 199 209 217 212 200 178 164 169 179 187 189 185 183 183 180 181 183 181 180 185 188 189 189 190 195 202 207 211 212 210 208 206 203 207 215 214 206 205 214 221 226 228 229 229 227 224 227 236 244 244 238 230 227 227 233 243 250 254 256 259
239 258 354 346 320 24 56 84 114 101 10 347 98 99 109 160 154 151 156 164 179 195 192 196 197 192 197 210 216 213 204 183 169 172 181 185 188 189 188 180 178 182 180 177 179 184 184 183 184 182 182 187 192 196 198 198 201 206 207 207 209 209 207 207 211 214 215 215 216 218 217 209 204 202 198 194 188 181 183 195 205 214 220 221 220 225
245 255 105 194 220 123 125 134 142 149 162 161 135 120 129 150 148 140 138 131 121 132 169 187 180 177 191 209 213 203 189 176 174 175 172 176 187 191 185 185 185 183 179 176 178 182 181 178 176 171 169 171 173 172 175 180 189 198 205 206 205 206 209 212 216 220 224 230 234 237 238 233 227 222 211 196 188 185 187 192 182 154 165 190 202 206
232 168 91 99 117 134 137 141 152 171 188 190 176 164 163 165 150 122 119 119 114 115 126 147 160 165 174 188 202 202 180 159 161 166 161 163 176 183 185 188 181 173 173 174 174 176 176 175 173 168 163 163 161 158 159 163 168 177 189 196 200 205 212 218 223 227 231 238 242 244 246 244 236 231 229 226 225 226 228 226 219 209 205 207 210 213
141 134 92 91 90 106 129 145 165 183 203 238 248 198 195 203 214 26 42 98 116 129 142 145 148 163 178 172 174 181 170 159 164 174 171 168 179 190 192 190 179 173 176 176 175 178 176 171 172 170 164 161 156 152 153 157 160 164 172 179 189 200 209 215 217 217 221 227 228 228 233 235 229 227 231 235 239 243 245 240 229 222 219 216 213 216
122 138 144 129 113 127 158 175 185 194 207 245 19 67 184 198 198 66 329 187 142 158 171 164 157 164 188 195 182 175 173 170 174 187 197 200 209 212 201 189 181 182 186 186 186 188 185 180 179 174 168 166 164 160 161 164 165 168 173 177 184 194 201 208 211 212 213 215 214 214 216 216 214 216 221 226 231 234 232 228 224 224 225 223 221 223
102 107 133 151 150 148 165 173 161 142 170 202 167 53 88 183 190 117 345 309 316 190 179 181 180 178 183 193 196 189 184 177 178 196 215 220 225 230 215 198 196 197 199 201 203 203 201 195 188 180 177 177 179 183 189 191 191 194 196 198 202 207 210 215 220 219 220 221 221 223 224 223 222 222 223 225 226 227 229 229 229 231 233 234 235 236
158 125 120 143 158 152 161 173 159 152 196 223 220 246 332 348 336 1 40 10 345 336 278 159 164 178 191 197 202 206 204 193 198 225 237 224 215 213 209 218 224 221 217 219 220 220 216 208 202 204 210 212 215 220 226 231 236 242 243 242 244 241 238 238 237 235 233 233 232 232 232 232 233 233 234 236 236 237 238 237 237 239 241 242 244 245
198 183 166 165 165 159 166 180 176 181 213 239 241 253 283 327 328 322 339 22 34 7 17 81 117 152 201 205 207 214 218 219 222 224 219 217 220 216 201 196 205 212 217 223 227 228 225 223 229 241 246 245 243 244 248 255 261 267 270 274 275 274 271 268 264 261 256 250 247 245 244 244 245 244 245 245 245 248 249 249 248 250 250 251 253 254
Height
3151 3152 3152 3152 3152 3154 3155 3155 3156 3157 3158 3159 3160 3161 3162 3164 3164 3164 3165 3166 3169 3170 3172 3174 3175 3176 3177 3179 3181 3183 3184 3186 3190 3192 3193 3194 3196 3197 3199 3199 3200 3201 3203 3203 3205 3206 3207 3207 3207 3208 3208 3209 3210 3211 3211 3212 3213 3214 3215 3215 3217 3217 3218 3219 3220 3221 3221 3222 3223 3223 3224 3225 3226 3227 3227 3228 3229 3230 3231 3232 3233 3234 3234 3235 3236 3237
3151 3151 3150 3151 3152 3153 3154 3155 3156 3156 3157 3159 3160 3159 3161 3163 3162 3162 3164 3166 3168 3170 3171 3174 3175 3176 3177 3178 3180 3181 3183 3185 3188 3191 3193 3194 3195 3197 3199 3199 3200 3202 3203 3203 3205 3206 3207 3207 3207 3208 3209 3209 3211 3211 3212 3212 3214 3215 3215 3216 3217 3218 3218 3220 3220 3221 3222 3223 3223 3224 3225 3226 3227 3228 3228 3229 3230 3230 3231 3232 3233 3234 3235 3236 3237 3238
3150 3149 3149 3151 3152 3153 3153 3155 3155 3154 3156 3158 3159 3159 3159 3161 3162 3162 3163 3165 3167 3168 3170 3172 3174 3176 3177 3178 3179 3180 3183 3185 3185 3187 3191 3193 3195 3197 3198 3199 3200 3201 3202 3203 3204 3206 3206 3207 3207 3208 3209 3210 3211 3212 3212 3213 3214 3215 3216 3216 3217 3218 3219 3220 3221 3222 3223 3223 3224 3225 3225 3226 3227 3228 3229 3230 3230 3231 3232 3233 3234 3235 3236 3237 3238 3239
3148 3148 3149 3150 3152 3152 3153 3154 3154 3153 3155 3156 3158 3158 3158 3161 3163 3162 3163 3165 3166 3167 3169 3171 3174 3176 3177 3178 3179 3180 3182 3184 3185 3187 3189 3191 3194 3196 3197 3198 3199 3201 3202 3203 3204 3205 3206 3206 3207 3208 3209 3210 3211 3211 3213 3213 3214 3215 3216 3217 3218 3218 3219 3220 3222 3223 3223 3224 3225 3225 3226 3227 3228 3229 3230 3230 3231 3232 3233 3233 3234 3235 3236 3237 3238 3239
3146 3147 3148 3149 3151 3151 3152 3152 3152 3152 3154 3155 3157 3157 3157 3161 3163 3162 3163 3166 3167 3168 3169 3170 3174 3176 3175 3176 3178 3180 3181 3183 3185 3187 3188 3190 3192 3195 3196 3198 3199 3200 3201 3202 3204 3205 3205 3206 3207 3208 3209 3210 3211 3212 3213 3213 3214 3215 3216 3217 3218 3219 3220 3221 3222 3223 3224 3225 3225 3226 3227 3228 3229 3229 3230 3231 3232 3233 3233 3234 3235 3236 3237 3238 3239 3240
3145 3146 3147 3148 3150 3150 3150 3150 3150 3152 3154 3155 3155 3153 3152 3156 3161 3162 3163 3165 3168 3169 3169 3171 3173 3174 3174 3174 3177 3179 3180 3181 3183 3185 3187 3188 3190 3193 3195 3196 3198 3199 3200 3202 3203 3204 3205 3206 3207 3208 3209 3210 3211 3212 3213 3213 3214 3215 3217 3218 3219 3219 3220 3221 3222 3223 3224 3225 3226 3227 3227 3228 3229 3230 3231 3232 3232 3233 3234 3235 3236 3237 3238 3239 3240 3241
3144 3145 3147 3147 3148 3149 3149 3150 3150 3153 3155 3155 3154 3151 3150 3154 3157 3160 3163 3164 3166 3168 3169 3171 3172 3173 3173 3173 3175 3177 3178 3180 3181 3183 3185 3187 3189 3191 3193 3195 3197 3198 3200 3202 3203 3203 3205 3206 3207 3208 3209 3210 3211 3212 3213 3213 3214 3215 3217 3218 3219 3219 3220 3221 3222 3223 3224 3225 3226 3227 3228 3229 3230 3230 3231 3232 3233 3234 3235 3236 3237 3237 3238 3239 3240 3241
3143 3144 3145 3145 3148 3148 3148 3150 3151 3154 3154 3154 3154 3153 3152 3155 3157 3159 3162 3163 3164 3166 3169 3171 3171 3171 3172 3172 3174 3176 3177 3178 3179 3181 3183 3185 3187 3190 3192 3194 3196 3198 3199 3201 3202 3203 3204 3205 3206 3208 3209 3210 3211 3212 3212 3213 3214 3215 3216 3218 3219 3220 3221 3221 3222 3223 3224 3225 3226 3227 3228 3229 3230 3231 3232 3233 3234 3235 3235 3236 3237 3238 3239 3240 3241 3242
3142 3142 3143 3144 3146 3147 3148 3150 3151 3153 3153 3153 3154 3154 3154 3156 3157 3158 3161 3161 3163 3164 3166 3167 3168 3169 3170 3171 3173 3175 3176 3176 3176 3178 3181 3184 3186 3188 3190 3193 3195 3197 3199 3200 3201 3202 3203 3205 3206 3207 3209 3210 3211 3212 3212 3213 3214 3215 3216 3218 3219 3220 3221 3221 3222 3223 3224 3225 3227 3228 3229 3230 3231 3231 3232 3233 3234 3235 3236 3237 3238 3239 3240 3241 3242 3243
3141 3141 3142 3144 3146 3147 3148 3150 3150 3151 3151 3151 3152 3153 3154 3156 3156 3157 3158 3160 3162 3163 3162 3163 3165 3167 3168 3169 3170 3172 3172 3172 3174 3176 3179 3182 3185 3187 3189 3192 3195 3196 3198 3199 3200 3202 3203 3204 3206 3207 3209 3210 3211 3212 3212 3213 3214 3215 3216 3218 3219 3220 3221 3222 3223 3223 3225 3226 3227 3228 3229 3230 3231 3232 3233 3233 3234 3235 3236 3238 3239 3240 3241 3241 3242 3243
3140 3141 3142 3144 3145 3147 3148 3149 3149 3150 3150 3150 3152 3153 3154 3155 3156 3157 3157 3159 3160 3160 3159 3160 3162 3164 3166 3166 3165 3165 3165 3167 3170 3174 3177 3180 3183 3185 3187 3191 3193 3195 3197 3198 3199 3201 3203 3204 3205 3207 3208 3209 3210 3211 3212 3213 3214 3215 3216 3217 3218 3219 3221 3222 3223 3224 3225 3226 3227 3228 3230 3230 3231 3232 3233 3234 3235 3236 3237 3238 3239 3240 3241 3242 3243 3244
3139 3140 3142 3144 3145 3147 3148 3147 3148 3149 3149 3150 3152 3154 3154 3154 3155 3156 3157 3158 3159 3157 3156 3157 3159 3161 3163 3164 3163 3162 3163 3166 3169 3171 3175 3178 3181 3183 3186 3189 3192 3193 3196 3197 3198 3200 3202 3203 3205 3206 3208 3209 3209 3211 3211 3212 3213 3214 3215 3217 3218 3219 3220 3222 3223 3224 3225 3226 3227 3228 3230 3231 3231 3232 3233 3234 3235 3236 3237 3238 3239 3240 3241 3242 3243 3244
3139 3139 3141 3143 3145 3145 3146 3147 3147 3147 3148 3150 3152 3154 3153 3152 3154 3155 3155 3155 3155 3154 3155 3155 3157 3160 3161 3162 3162 3162 3162 3165 3167 3170 3174 3176 3179 3182 3184 3187 3190 3192 3194 3196 3197 3199 3201 3202 3203 3205 3207 3208 3209 3210 3211 3212 3213 3214 3215 3216 3217 3218 3220 3222 3223 3224 3225 3226 3227 3228 3229 3231 3232 3233 3234 3234 3235 3236 3237 3238 3239 3240 3242 3243 3244 3244
3138 3138 3140 3142 3143 3143 3143 3145 3146 3144 3146 3149 3152 3153 3152 3152 3155 3156 3153 3152 3153 3155 3156 3156 3156 3158 3160 3160 3161 3161 3160 3162 3166 3170 3173 3175 3178 3182 3183 3185 3188 3191 3192 3194 3196 3198 3199 3201 3203 3204 3205 3206 3208 3210 3211 3211 3212 3213 3214 3215 3217 3218 3220 3221 3223 3224 3225 3226 3227 3228 3229 3230 3231 3233 3233 3234 3235 3237 3238 3239 3240 3241 3242 3243 3244 3245
3133 3135 3138 3140 3142 3142 3142 3143 3143 3143 3144 3147 3150 3152 3151 3152 3155 3155 3153 3153 3156 3159 3158 3157 3158 3158 3158 3158 3159 3159 3159 3161 3164 3168 3171 3174 3178 3181 3184 3185 3186 3189 3191 3193 3195 3197 3198 3200 3202 3203 3204 3206 3207 3209 3210 3211 3212 3213 3214 3215 3216 3218 3219 3221 3222 3223 3224 3225 3227 3228 3229 3230 3231 3232 3233 3234 3235 3237 3238 3239 3240 3241 3242 3243 3244 3245
3131 3132 3135 3138 3140 3141 3142 3142 3143 3143 3143 3144 3148 3151 3150 3150 3153 3153 3152 3153 3156 3159 3157 3157 3158 3157 3156 3156 3157 3157 3158 3159 3163 3167 3169 3172 3175 3178 3182 3183 3185 3187 3190 3191 3193 3196 3197 3199 3201 3202 3204 3205 3207 3208 3209 3210 3211 3212 3213 3215 3216 3217 3219 3220 3221 3223 3224 3225 3226 3227 3229 3230 3231 3232 3233 3234 3235 3236 3237 3238 3239 3240 3242 3243 3244 3244
3131 3131 3132 3134 3137 3139 3141 3142 3143 3143 3141 3142 3146 3148 3148 3149 3151 3152 3153 3154 3155 3156 3157 3156 3157 3156 3155 3156 3156 3156 3157 3159 3161 3165 3167 3170 3173 3175 3178 3181 3183 3186 3188 3190 3192 3194 3196 3198 3200 3201 3203 3205 3206 3207 3208 3209 3210 3212 3213 3214 3215 3216 3218 3219 3221 3222 3223 3225 3226 3227 3228 3230 3230 3231 3233 3234 3235 3236 3237 3238 3239 3240 3241 3242 3243 3244
3132 3131 3130 3132 3136 3138 3140 3142 3143 3143 3141 3142 3144 3145 3146 3149 3150 3151 3152 3153 3153 3154 3156 3156 3156 3155 3155 3156 3156 3156 3157 3159 3161 3163 3166 3169 3171 3173 3175 3179 3182 3185 3187 3189 3191 3193 3195 3197 3199 3200 3202 3204 3205 3207 3207 3208 3210 3211 3212 3214 3215 3216 3217 3218 3220 3221 3223 3225 3226 3227 3228 3229 3230 3231 3233 3234 3235 3236 3237 3238 3239 3240 3241 3242 3243 3244
3135 3133 3130 3131 3134 3137 3140 3142 3142 3142 3141 3142 3143 3143 3144 3145 3146 3149 3151 3152 3153 3154 3155 3156 3156 3155 3156 3156 3157 3157 3158 3159 3161 3162 3165 3167 3168 3170 3173 3177 3180 3183 3184 3187 3189 3191 3193 3195 3197 3199 3201 3203 3204 3206 3207 3208 3209 3210 3212 3213 3214 3215 3217 3218 3219 3220 3222 3224 3225 3227 3228 3229 3230 3231 3233 3234 3235 3236 3237 3238 3239 3240 3241 3242 3243 3244
3137 3135 3131 3131 3134 3137 3139 3140 3140 3140 3141 3143 3144 3144 3144 3143 3144 3147 3149 3149 3151 3152 3153 3154 3155 3155 3156 3156 3156 3157 3158 3159 3160 3161 3162 3164 3166 3168 3171 3174 3177 3180 3182 3185 3188 3189 3192 3194 3196 3198 3200 3202 3203 3205 3206 3207 3209 3210 3211 3212 3213 3215 3216 3217 3218 3220 3222 3223 3225 3226 3228 3229 3230 3231 3233 3234 3235 3236 3237 3237 3239 3240 3241 3242 3243 3244
3137 3136 3133 3132 3135 3136 3135 3136 3138 3139 3141 3142 3143 3144 3143 3143 3144 3147 3148 3148 3149 3150 3149 3152 3155 3154 3155 3156 3155 3155 3156 3157 3158 3159 3160 3163 3165 3167 3170 3172 3175 3178 3180 3183 3186 3188 3190 3193 3195 3197 3199 3201 3202 3204 3205 3206 3208 3209 3210 3211 3213 3214 3215 3217 3218 3219 3221 3223 3224 3226 3227 3229 3230 3231 3233 3234 3235 3236 3237 3237 3238 3240 3241 3242 3242 3243
3136 3136 3134 3133 3134 3134 3133 3134 3137 3139 3140 3141 3142 3142 3142 3143 3144 3145 3147 3147 3148 3147 3146 3150 3154 3153 3153 3154 3155 3155 3156 3156 3157 3157 3159 3163 3165 3166 3168 3170 3173 3176 3178 3182 3185 3187 3189 3191 3193 3195 3198 3199 3200 3202 3204 3205 3207 3208 3210 3211 3212 3214 3215 3216 3218 3219 3221 3222 3224 3225 3227 3228 3230 3231 3232 3233 3234 3235 3236 3237 3238 3240 3241 3242 3243 3243
3136 3136 3135 3133 3131 3130 3131 3134 3135 3137 3139 3139 3140 3141 3141 3142 3143 3144 3145 3146 3146 3146 3146 3149 3152 3153 3153 3154 3155 3156 3156 3155 3155 3157 3159 3161 3163 3165 3166 3168 3171 3174 3177 3180 3184 3186 3188 3190 3192 3194 3196 3197 3198 3200 3202 3204 3205 3207 3209 3210 3212 3213 3215 3216 3217 3219 3220 3222 3223 3225 3226 3228 3229 3231 3232 3233 3234 3235 3236 3237 3238 3239 3240 3241 3242 3243
3137 3137 3137 3134 3131 3129 3130 3132 3134 3136 3138 3138 3138 3139 3140 3141 3141 3143 3144 3146 3145 3145 3147 3150 3153 3155 3155 3154 3155 3156 3155 3155 3157 3159 3160 3160 3161 3164 3166 3168 3170 3172 3176 3179 3181 3183 3186 3188 3190 3193 3194 3195 3197 3199 3201 3203 3205 3206 3208 3209 3211 3213 3214 3216 3217 3218 3220 3221 3223 3224 3226 3227 3229 3230 3232 3233 3234 3235 3236 3237 3238 3239 3240 3241 3241 3242
3136 3137 3137 3136 3134 3131 3128 3129 3132 3135 3136 3136 3136 3137 3138 3139 3141 3142 3143 3145 3145 3145 3146 3149 3152 3154 3155 3155 3157 3157 3156 3157 3158 3159 3159 3159 3161 3163 3166 3168 3170 3172 3175 3177 3179 3181 3184 3186 3188 3190 3191 3193 3196 3198 3200 3202 3204 3206 3207 3209 3210 3212 3214 3215 3216 3218 3219 3221 3222 3223 3225 3227 3228 3229 3231 3232 3233 3234 3235 3236 3237 3238 3239 3240 3240 3241
3136 3136 3137 3136 3135 3132 3129 3129 3131 3133 3135 3136 3136 3135 3136 3138 3140 3140 3141 3142 3143 3144 3145 3147 3148 3151 3154 3157 3159 3159 3158 3158 3159 3159 3158 3158 3160 3162 3166 3168 3169 3171 3174 3176 3178 3181 3183 3185 3186 3188 3190 3192 3195 3197 3199 3201 3202 3205 3207 3208 3209 3211 3213 3214 3215 3217 3219 3220 3221 3223 3224 3226 3227 3229 3230 3231 3232 3233 3234 3235 3236 3237 3238 3239 3239 3241
3137 3136 3136 3136 3134 3133 3133 3133 3133 3132 3132 3134 3135 3135 3136 3137 3138 3140 3140 3139 3140 3141 3144 3147 3148 3149 3152 3156 3158 3159 3159 3159 3159 3159 3159 3160 3160 3162 3165 3167 3168 3170 3172 3175 3177 3179 3181 3183 3185 3187 3189 3191 3193 3195 3198 3200 3202 3204 3205 3205 3207 3210 3211 3213 3215 3216 3218 3220 3221 3222 3224 3225 3226 3228 3229 3230 3231 3232 3233 3234 3235 3236 3237 3238 3239 3239
3138 3137 3136 3137 3135 3135 3135 3135 3134 3133 3132 3133 3135 3136 3136 3136 3136 3138 3139 3138 3138 3139 3143 3148 3149 3149 3151 3154 3156 3158 3159 3159 3159 3160 3161 3161 3161 3162 3164 3165 3165 3167 3170 3172 3175 3177 3179 3181 3183 3186 3188 3189 3192 3194 3196 3198 3201 3203 3203 3202 3203 3206 3208 3210 3213 3215 3217 3219 3221 3222 3224 3225 3226 3227 3228 3229 3230 3231 3232 3233 3234 3235 3236 3237 3238 3239
3138 3138 3137 3137 3136 3136 3137 3136 3135 3134 3133 3133 3134 3134 3136 3136 3137 3137 3138 3138 3138 3138 3140 3145 3149 3150 3151 3152 3154 3156 3158 3159 3159 3160 3162 3162 3161 3161 3163 3163 3164 3165 3167 3168 3171 3174 3177 3179 3182 3185 3187 3188 3191 3192 3194 3197 3200 3200 3199 3199 3201 3203 3207 3210 3212 3214 3216 3218 3220 3222 3224 3225 3226 3226 3227 3229 3230 3231 3232 3232 3233 3234 3235 3236 3237 3238
3137 3138 3137 3137 3136 3135 3135 3136 3136 3136 3135 3133 3132 3132 3134 3136 3136 3136 3136 3137 3139 3138 3137 3141 3146 3149 3151 3152 3153 3155 3157 3158 3158 3160 3161 3162 3160 3160 3160 3161 3162 3163 3164 3166 3168 3171 3175 3179 3181 3184 3185 3187 3189 3189 3191 3193 3194 3193 3194 3198 3201 3204 3207 3209 3210 3213 3216 3218 3219 3220 3222 3223 3225 3226 3227 3228 3228 3229 3230 3231 3232 3233 3234 3234 3236 3237
3136 3138 3138 3137 3136 3134 3134 3134 3134 3135 3135 3133 3132 3131 3132 3133 3134 3136 3137 3138 3140 3139 3136 3138 3143 3147 3150 3152 3153 3155 3156 3157 3158 3159 3160 3160 3160 3159 3159 3160 3161 3161 3162 3164 3166 3169 3173 3176 3179 3182 3184 3186 3187 3187 3188 3189 3190 3192 3195 3199 3200 3203 3207 3208 3210 3213 3215 3217 3218 3219 3220 3221 3222 3223 3224 3224 3226 3227 3228 3229 3230 3230 3230 3231 3232 3233
3137 3138 3137 3137 3136 3134 3133 3133 3133 3133 3134 3134 3133 3132 3131 3132 3134 3136 3137 3137 3139 3138 3136 3137 3142 3145 3148 3150 3152 3154 3155 3156 3156 3157 3158 3159 3159 3159 3159 3160 3160 3161 3162 3164 3165 3167 3170 3173 3176 3179 3181 3183 3185 3186 3187 3189 3191 3193 3196 3197 3198 3202 3205 3206 3208 3211 3213 3215 3216 3218 3219 3221 3221 3221 3221 3222 3225 3227 3227 3228 3228 3227 3228 3229 3230 3231
3137 3138 3137 3137 3136 3134 3134 3134 3133 3133 3132 3132 3133 3133 3133 3134 3135 3136 3136 3136 3137 3138 3137 3139 3142 3145 3147 3149 3151 3153 3154 3154 3155 3156 3156 3157 3157 3158 3158 3159 3161 3162 3163 3164 3165 3167 3169 3172 3174 3177 3179 3181 3182 3184 3186 3188 3190 3192 3194 3195 3197 3199 3201 3202 3205 3208 3210 3212 3213 3214 3216 3219 3221 3221 3220 3220 3221 3224 3225 3226 3227 3226 3227 3228 3229 3230
3137 3137 3137 3137 3136 3135 3134 3134 3134 3133 3132 3133 3134 3134 3135 3136 3137 3137 3137 3138 3139 3140 3140 3140 3143 3145 3147 3149 3151 3152 3153 3153 3154 3154 3154 3155 3156 3157 3158 3160 3161 3163 3164 3165 3166 3168 3170 3171 3174 3176 3177 3179 3181 3183 3185 3187 3189 3191 3192 3194 3195 3197 3198 3199 3202 3205 3206 3207 3210 3211 3214 3216 3218 3219 3219 3218 3219 3221 3223 3224 3225 3224 3225 3226 3227 3228
3137 3137 3137 3137 3137 3136 3135 3135 3134 3134 3134 3135 3136 3136 3136 3137 3138 3138 3139 3139 3141 3142 3142 3142 3143 3146 3147 3148 3151 3152 3152 3152 3153 3154 3154 3154 3156 3157 3158 3160 3161 3163 3164 3165 3166 3168 3170 3171 3173 3175 3177 3178 3180 3182 3184 3186 3187 3189 3190 3192 3193 3194 3196 3197 3199 3201 3202 3205 3207 3209 3211 3214 3215 3216 3217 3217 3218 3220 3221 3222 3222 3222 3222 3223 3224 3225
3136 3137 3136 3136 3136 3135 3134 3135 3135 3135 3136 3137 3138 3138 3138 3138 3139 3139 3140 3141 3142 3142 3143 3143 3144 3146 3148 3148 3150 3151 3151 3151 3153 3154 3153 3154 3155 3156 3158 3159 3161 3162 3163 3164 3166 3167 3169 3171 3173 3174 3175 3177 3178 3180 3182 3184 3185 3186 3188 3189 3190 3190 3192 3194 3196 3197 3198 3201 3204 3206 3208 3210 3212 3214 3214 3215 3217 3219 3220 3219 3219 3219 3220 3220 3221 3222
3136 3136 3136 3136 3135 3134 3134 3136 3137 3137 3138 3138 3138 3140 3140 3138 3138 3139 3140 3142 3142 3142 3142 3143 3144 3146 3147 3148 3149 3150 3150 3150 3152 3153 3153 3153 3154 3155 3157 3158 3160 3161 3163 3164 3166 3167 3169 3170 3171 3173 3174 3175 3176 3178 3179 3181 3182 3184 3185 3186 3186 3186 3188 3190 3192 3194 3195 3196 3199 3201 3204 3206 3209 3210 3211 3211 3214 3216 3216 3215 3215 3216 3217 3218 3219 3219
3136 3136 3135 3135 3135 3135 3135 3136 3136 3138 3139 3139 3139 3140 3140 3139 3138 3138 3140 3141 3142 3141 3142 3143 3145 3145 3146 3146 3147 3148 3149 3150 3151 3152 3152 3153 3154 3154 3156 3158 3159 3160 3162 3163 3165 3166 3167 3168 3169 3170 3172 3173 3174 3176 3177 3178 3180 3181 3182 3183 3184 3184 3185 3186 3187 3189 3192 3193 3195 3198 3200 3201 3204 3206 3207 3208 3210 3211 3211 3211 3212 3213 3214 3214 3215 3215
3134 3134 3135 3135 3135 3134 3134 3134 3134 3136 3139 3140 3139 3139 3140 3140 3139 3139 3140 3141 3141 3142 3142 3143 3145 3145 3146 3146 3147 3148 3149 3150 3150 3151 3152 3152 3153 3154 3156 3157 3159 3160 3161 3162 3163 3164 3165 3166 3167 3168 3169 3171 3172 3173 3174 3176 3177 3179 3180 3181 3182 3182 3182 3183 3184 3186 3188 3190 3192 3194 3196 3197 3200 3202 3204 3205 3205 3206 3207 3208 3208 3209 3210 3210 3211 3211
3132 3133 3134 3134 3133 3134 3134 3134 3135 3136 3138 3140 3140 3139 3140 3140 3140 3140 3141 3141 3141 3142 3142 3143 3144 3145 3146 3147 3148 3149 3150 3149 3149 3150 3151 3152 3153 3154 3155 3156 3158 3158 3159 3160 3161 3162 3163 3164 3165 3166 3168 3169 3170 3172 3173 3174 3176 3177 3178 3179 3180 3181 3181 3182 3183 3185 3187 3187 3189 3191 3193 3195 3197 3199 3200 3201 3202 3203 3203 3204 3205 3206 3207 3208 3208 3208
3131 3132 3132 3132 3132 3133 3134 3134 3135 3137 3139 3139 3140 3140 3140 3141 3141 3141 3141 3141 3141 3141 3142 3143 3143 3143 3144 3145 3147 3148 3148 3148 3149 3149 3150 3151 3152 3153 3154 3155 3156 3157 3158 3159 3160 3161 3162 3163 3164 3166 3167 3168 3169 3171 3172 3174 3175 3176 3176 3178 3179 3180 3181 3182 3182 3184 3185 3186 3188 3190 3192 3193 3194 3196 3197 3197 3198 3199 3200 3201 3202 3203 3204 3205 3205 3205
3132 3132 3132 3132 3132 3133 3134 3134 3135 3136 3138 3138 3138 3139 3140 3140 3141 3142 3142 3141 3140 3140 3142 3142 3141 3141 3143 3145 3146 3146 3147 3147 3148 3147 3148 3150 3151 3153 3154 3155 3156 3156 3157 3158 3159 3160 3161 3162 3163 3165 3166 3167 3168 3170 3172 3173 3174 3175 3176 3177 3178 3179 3179 3180 3181 3183 3184 3185 3187 3189 3190 3192 3192 3193 3194 3194 3195 3196 3197 3198 3199 3200 3202 3202 3202 3202
3133 3133 3133 3133 3133 3133 3134 3135 3136 3137 3138 3138 3138 3139 3140 3140 3140 3142 3142 3141 3140 3140 3143 3144 3142 3143 3145 3147 3148 3148 3147 3148 3148 3147 3147 3149 3151 3153 3154 3155 3156 3156 3157 3158 3159 3160 3161 3162 3163 3164 3165 3166 3168 3169 3170 3172 3173 3174 3175 3176 3177 3178 3179 3180 3181 3182 3183 3185 3187 3188 3190 3190 3191 3191 3192 3192 3193 3194 3195 3196 3197 3198 3199 3199 3200 3201
3132 3133 3134 3134 3134 3135 3136 3137 3137 3138 3139 3139 3138 3139 3140 3140 3140 3141 3142 3141 3140 3140 3142 3144 3146 3147 3148 3149 3149 3149 3148 3148 3148 3147 3148 3150 3151 3153 3155 3155 3156 3156 3157 3158 3159 3160 3161 3162 3163 3164 3165 3166 3167 3168 3170 3171 3172 3174 3175 3175 3176 3178 3179 3180 3181 3182 3183 3185 3187 3188 3189 3189 3190 3191 3191 3192 3192 3193 3194 3195 3196 3196 3197 3197 3198 3200
3132 3133 3134 3135 3135 3135 3137 3138 3138 3138 3139 3139 3139 3140 3140 3139 3139 3140 3141 3141 3141 3141 3141 3143 3145 3148 3149 3150 3151 3151 3150 3149 3148 3147 3148 3150 3151 3153 3154 3155 3155 3156 3158 3159 3161 3162 3162 3163 3164 3165 3165 3166 3167 3168 3169 3171 3172 3173 3174 3175 3176 3177 3179 3180 3181 3182 3183 3185 3186 3187 3188 3189 3189 3190 3191 3191 3192 3193 3194 3195 3195 3196 3196 3197 3198 3199
3133 3133 3133 3134 3135 3135 3136 3137 3138 3138 3139 3139 3140 3140 3140 3140 3140 3140 3141 3141 3142 3143 3144 3144 3144 3146 3149 3150 3151 3151 3152 3151 3150 3149 3149 3150 3152 3153 3153 3154 3155 3157 3158 3160 3162 3163 3164 3164 3165 3166 3167 3168 3169 3169 3170 3171 3172 3173 3174 3175 3176 3177 3178 3179 3181 3182 3183 3184 3185 3186 3187 3187 3188 3189 3190 3190 3191 3192 3192 3193 3194 3194 3195 3196 3197 3198
3133 3133 3134 3135 3136 3136 3137 3138 3138 3138 3139 3140 3140 3140 3141 3141 3141 3141 3142 3143 3144 3145 3145 3146 3145 3146 3148 3149 3149 3150 3150 3151 3152 3151 3150 3150 3152 3153 3153 3154 3156 3158 3159 3160 3162 3163 3164 3165 3166 3167 3168 3169 3170 3171 3171 3172 3173 3174 3175 3175 3176 3177 3178 3179 3180 3181 3182 3183 3183 3184 3185 3186 3186 3187 3188 3189 3190 3191 3191 3192 3192 3193 3194 3195 3196 3197
3134 3134 3135 3136 3136 3137 3138 3138 3138 3138 3139 3139 3140 3140 3140 3141 3142 3142 3143 3144 3145 3145 3146 3146 3146 3146 3146 3146 3147 3148 3150 3151 3152 3153 3152 3152 3153 3153 3154 3156 3157 3159 3160 3161 3162 3163 3164 3165 3166 3167 3168 3169 3170 3171 3172 3173 3174 3175 3175 3176 3176 3177 3178 3179 3179 3180 3181 3181 3182 3183 3184 3184 3185 3186 3187 3188 3189 3190 3190 3191 3192 3192 3193 3194 3195 3195
3135 3135 3136 3137 3137 3138 3138 3138 3138 3139 3139 3140 3141 3141 3140 3140 3142 3143 3143 3143 3144 3145 3146 3147 3147 3147 3146 3146 3146 3146 3148 3150 3152 3154 3155 3155 3156 3156 3157 3158 3159 3160 3161 3162 3163 3164 3165 3165 3166 3167 3168 3169 3170 3171 3172 3173 3174 3174 3175 3176 3176 3177 3177 3178 3179 3179 3180 3181 3181 3182 3182 3183 3184 3184 3185 3186 3187 3188 3189 3190 3190 3191 3191 3192 3192 3193
3135 3136 3136 3137 3138 3139 3139 3139 3139 3139 3140 3141 3141 3141 3140 3140 3141 3142 3144 3143 3143 3143 3144 3146 3146 3146 3147 3148 3148 3147 3147 3149 3151 3152 3154 3155 3156 3157 3158 3160 3160 3161 3162 3163 3164 3165 3165 3166 3167 3168 3168 3169 3170 3171 3171 3172 3173 3174 3174 3175 3175 3176 3176 3177 3177 3178 3179 3179 3180 3181 3181 3182 3182 3183 3183 3184 3185 3186 3186 3187 3188 3188 3189 3189 3190 3191
3135 3136 3136 3137 3137 3138 3139 3140 3140 3140 3141 3141 3141 3141 3141 3140 3140 3141 3143 3144 3144 3142 3142 3143 3145 3146 3147 3148 3148 3148 3148 3149 3150 3151 3152 3154 3156 3157 3158 3158 3159 3160 3161 3162 3163 3164 3165 3166 3167 3168 3169 3169 3169 3170 3171 3171 3172 3173 3173 3174 3174 3175 3175 3176 3176 3176 3177 3178 3178 3179 3179 3180 3180 3181 3181 3182 3183 3183 3184 3184 3185 3186 3186 3187 3187 3188